{"data":{"norad_id":62382,"intl_designator":"2024-247F","name":"HAWK-11A","alt_names":[],"object_type":"PAYLOAD","status":"ACTIVE","operator":null,"country":"US","launch_date":"2024-12-21","launch_site_code":"AFWTR","launch_vehicle":null,"mission":null,"orbit_class":"UNKNOWN","rcs_meters":null,"size_class":null,"mass_kg":null,"dimensions":null,"purposes":[],"wikipedia_slug":null,"has_3d_model":false,"image_url":null,"decayed_at":null,"tle_current":{"epoch":"2026-05-25T02:59:18.731904Z","epoch_age_seconds":78471,"freshness":"FRESH","line1":"1 62382U 24247F   26145.12452236  .00006000  00000+0  21298-3 0  9993","line2":"2 62382  44.9952  54.8463 0003134  78.4500 281.6736 15.29976771 79475","mean_motion":15.29976771,"eccentricity":0.0003134,"inclination_deg":44.9952,"raan_deg":54.8463,"arg_perigee_deg":78.45,"mean_anomaly_deg":281.6736,"bstar":0.00021298,"rev_number":7947,"period_min":94.119076007854,"perigee_km":473.73362256278,"apogee_km":478.02972146639,"semimajor_km":6854.0186720146,"source":"CELESTRAK","updated_at":"2026-05-25T13:38:02.944914Z"}}}